Location: *
(46.1833°N, 22.7667°E)
Time: 00:56:30
(UTC+00:00)

IRS-1A Rocket - Pass Details

Date: 17 September 2019
Orbit: 852 x 931 km, 99.2° (Epoch: 20 October)

Event Time Altitude Azimuth Distance (km) Brightness Sun altitude
Rises 17:37:16 0° 167° (SSE) 3,523 7.1 -11.1°
Reaches altitude 10° 17:39:42 10° 169° (S) 2,575 6.5 -11.5°
Maximum altitude 17:45:26 77° 255° (WSW) 916 4.5 -12.4°
Drops below altitude 10° 17:51:06 10° 342° (NNW) 2,538 7.2 -13.4°
Sets 17:53:29 0° 344° (NNW) 3,470 7.9 -13.7°
